"Pseudo-MPEC" for CC7UFJ2
Created 2024 Nov 2 11:31:13 UT using Find_Orb
Click here for an explanation of pseudo-MPECs
Astrometry:
CC7UFJ2*1C2024 10 31.24186501 23 45.067+01 07 00.62 ~AV6V 21.09GVNEOCPG96
CC7UFJ2 1C2024 10 31.24703001 23 45.755+01 06 02.74 ~AV6V 21.03GVNEOCPG96
CC7UFJ2 1C2024 10 31.25220701 23 46.482+01 05 05.03 ~AV6V 21.08GVNEOCPG96
CC7UFJ2 1C2024 10 31.25739501 23 47.152+01 04 07.25 ~AV6V 21.72GVNEOCPG96
CC7UFJ2 KC2024 10 31.38085801 24 04.741+00 40 57.83 ~AV9l 21.19GVNEOCPI52
CC7UFJ2 KC2024 10 31.38460301 24 05.339+00 40 15.20 ~AV9l 20.78GVNEOCPI52
CC7UFJ2 KC2024 10 31.38834101 24 05.854+00 39 32.47 ~AV9l 20.48GVNEOCPI52
CC7UFJ2 1C2024 10 31.88705 01 25 58.61 -01 00 34.3 ~AVNH 22.1 VXNEOCP033
CC7UFJ2 1C2024 10 31.88851 01 25 58.86 -01 00 52.2 ~AVNH 22.3 VXNEOCP033
CC7UFJ2 1C2024 10 31.88997 01 25 59.13 -01 01 10.7 ~AVNH 21.7 VXNEOCP033
CC7UFJ2 1C2024 10 31.89143 01 25 59.40 -01 01 28.6 ~AVNH 21.4 VXNEOCP033
CC7UFJ2 1C2024 11 01.25333801 27 21.524-02 19 19.96 ~B17H 20.87GVNEOCPG96
CC7UFJ2 1C2024 11 01.25850201 27 22.410-02 20 28.75 ~B17H 20.91GVNEOCPG96
CC7UFJ2 1C2024 11 01.26367601 27 23.285-02 21 38.34 ~B17H 21.66GVNEOCPG96
CC7UFJ2 1C2024 11 01.26883901 27 24.210-02 22 48.79 ~B17H 20.85GVNEOCPG96
CC7UFJ2 KC2024 11 01.89308301 30 06.53 -04 53 25.5 ~B1MV 20.0 GVNEOCPL01
CC7UFJ2 KC2024 11 01.89545501 30 07.04 -04 54 02.0 ~B1MV 20.1 GVNEOCPL01
CC7UFJ2 KC2024 11 01.89778201 30 07.54 -04 54 37.9 ~B1MV 20.3 GVNEOCPL01
CC7UFJ2 KC2024 11 01.91873501 30 12.87 -05 00 02.0 ~B1N2 VNEOCP587
CC7UFJ2 KC2024 11 01.91998301 30 13.12 -05 00 21.8 ~B1N2 20.4 GVNEOCP587
CC7UFJ2 KC2024 11 01.92123101 30 13.43 -05 00 41.1 ~B1N2 VNEOCP587
CC7UFJ2 KB2024 11 02.04372901 30 42.54 -05 32 31.9 ~B21l 20.2 GVNEOCPI93
CC7UFJ2 KB2024 11 02.05388101 30 44.91 -05 35 12.5 ~B21l 20.1 GVNEOCPI93
CC7UFJ2 KC2024 11 02.13931201 31 18.91 -05 57 52.1 ~B242 20.9 GVNEOCPH21
CC7UFJ2 KC2024 11 02.14509101 31 20.24 -05 59 25.5 ~B242 20.9 GVNEOCPH21
Station data:
(033) Karl Schwarzschild Observatory, Tautenburg (N50.980139 E11.711240)
Germany. Observer B. Stecklum. 1.34-m f/3 Schmidt + CCD.
(587) Sormano (N45.882946 E9.229180) Italy. Observers E. Colzani, E. Valli.
Measurer P. Sicoli. 0.5-m f/6.8 reflector + CCD.
(G96) Mt. Lemmon Survey (N32.442729 W110.788720) US/Arizona. Observer E.
J. Christensen. 1.5-m reflector + 10K CCD.
(H21) Astronomical Research Observatory, Westfield (N39.483054 W87.968270)
US/Illinois. Observer R. Holmes. Measurers S. Foglia, L. Buzzi, T.
Linder, R. Holmes. 0.76-m f/3.0 astrograph + CCD0.81-m f/4.0 astrograph +
CCD0.61-m f/4.5 astrograph + CCD0.40-m f/5.32 astrograph + CCD.
(I52) Steward Observatory, Mt. Lemmon Station (N32.442570 W110.788920)
US/Arizona. Observers T. A. Pruyne, B. M. Africano, E. J. Christensen, G.
A. Farneth, D. C. Fuls, A. R. Gibbs, A. D. Grauer, H. Gröller, J. A.
Johnson, R. A. Kowalski, S. M. Larson, G. J. Leonard, D. Rankin, R. L.
Seaman, F. C. Shelly, K. W. Wierzchoś. 1.0-m prime focus + CCD.
(I93) St Pardon de Conques (N44.558670 W0.202960) France. Observers F.
Losse, W. D'Anna. Measurer F. Losse. 0.40-m f/3.7 reflector + CCD.
(L01) Višnjan Observatory, Tičan (N45.290897 E13.749300) Croatia.
Observers K. Korlević, D. Pujagic, V. Dobos. Measurers D. Pujagic, K.
Korlević. 1.0-m f/2.9 reflector + CCD.
Orbital elements: CC7UFJ2
Perihelion 2024 Dec 16.41566 +/- 0.0185 TT = 9:58:33 (JD 2460660.91566)
Epoch 2024 Nov 2.0 TT = JDT 2460616.5 Earth MOID: 0.0256 Ma: 0.0260
M 338.63296798 +/- 0.06 (J2000 ecliptic) AutoNEOCP
n 0.48106974 +/- 0.0012 Peri. 241.42593 +/- 0.0012
a 1.61311013 +/- 0.00267 Node 214.12729 +/- 0.0017
e 0.4490785 +/- 0.00101 Incl. 7.06993 +/- 0.014
P 2.049/748.318d H 26.65 G 0.15 U 8.2
q 0.88869700 +/- 0.000153 Q 2.33752326 +/- 0.0055
From 25 observations 2024 Oct. 31-Nov. 2 (45.7 hr); mean residual 0".32
Residuals in arcseconds: 241031 G96 .00 .73+ 241031 033 .04- .08- 241101 587 .05- .01- 241031 G96 .08- .13+ 241031 033 .18+ .36+ 241101 587 .41- .53- 241031 G96 .39+ .10- 241101 G96 .37+ .55- 241101 587 .11+ .55- 241031 G96 .02- .23- 241101 G96 .19+ .38+ 241102 I93 .43+ .57+ 241031 I52 .21+ .15- 241101 G96 .20- .71+ 241102 I93 .14- .51+ 241031 I52 .41+ .12- 241101 G96 .17+ .10+ 241102 H21 .19+ .20- 241031 I52 .69- .23- 241101 L01 .08- .05- 241102 H21 .15+ .06+ 241031 033 .19- .35- 241101 L01 .19- .08- 241031 033 .27- .08+ 241101 L01 .31- .18- Ephemerides (geocentric): Date (UTC) HH RA Dec delta r elong mag " sig PA ---- -------- ------------ ------------ ------ ------ ----- --- -------- 2024 11 02 12 01 33 05.609 -07 36 16.67 .04212 1.0300 153.3 21.0 .291 0 2024 11 02 13 01 33 18.963 -07 48 25.02 .04193 1.0297 153.1 21.0 .288 0 2024 11 02 14 01 33 32.456 -08 00 39.78 .04174 1.0295 152.9 21.0 .285 0 2024 11 02 15 01 33 46.089 -08 13 01.02 .04155 1.0293 152.8 21.0 .281 0 2024 11 02 16 01 33 59.864 -08 25 28.81 .04137 1.0290 152.6 21.0 .277 0 2024 11 02 17 01 34 13.783 -08 38 03.21 .04118 1.0288 152.4 21.0 .273 0 2024 11 02 18 01 34 27.849 -08 50 44.28 .04100 1.0286 152.2 21.0 .268 1 2024 11 02 19 01 34 42.063 -09 03 32.10 .04081 1.0283 152.0 21.0 .263 1 2024 11 02 20 01 34 56.427 -09 16 26.72 .04063 1.0281 151.9 21.0 .258 1 2024 11 02 21 01 35 10.945 -09 29 28.21 .04044 1.0279 151.7 21.0 .252 2 2024 11 02 22 01 35 25.617 -09 42 36.65 .04026 1.0276 151.5 21.0 .246 2 2024 11 02 23 01 35 40.447 -09 55 52.09 .04008 1.0274 151.3 21.0 .240 2 2024 11 03 00 01 35 55.437 -10 09 14.60 .03990 1.0272 151.1 21.0 .233 3 2024 11 03 01 01 36 10.590 -10 22 44.25 .03972 1.0269 150.9 20.9 .226 3 2024 11 03 02 01 36 25.907 -10 36 21.11 .03954 1.0267 150.7 20.9 .218 4 2024 11 03 03 01 36 41.392 -10 50 05.25 .03936 1.0265 150.5 20.9 .211 5 2024 11 03 04 01 36 57.046 -11 03 56.73 .03918 1.0262 150.3 20.9 .202 6 2024 11 03 05 01 37 12.874 -11 17 55.63 .03900 1.0260 150.1 20.9 .194 7 2024 11 03 06 01 37 28.876 -11 32 02.00 .03883 1.0258 149.9 20.9 .185 8 2024 11 03 07 01 37 45.057 -11 46 15.92 .03865 1.0255 149.7 20.9 .176 9 2024 11 03 08 01 38 01.418 -12 00 37.46 .03848 1.0253 149.5 20.9 .166 11 2024 11 03 09 01 38 17.963 -12 15 06.68 .03830 1.0251 149.2 20.9 .157 12 2024 11 03 10 01 38 34.695 -12 29 43.66 .03813 1.0248 149.0 20.9 .147 15 2024 11 03 11 01 38 51.617 -12 44 28.46 .03795 1.0246 148.8 20.9 .136 17 2024 11 03 12 01 39 08.731 -12 59 21.14 .03778 1.0244 148.6 20.9 .126 20 2024 11 03 13 01 39 26.041 -13 14 21.79 .03761 1.0241 148.4 20.9 .116 24 2024 11 03 14 01 39 43.550 -13 29 30.46 .03744 1.0239 148.1 20.9 .106 29 2024 11 03 15 01 40 01.262 -13 44 47.23 .03727 1.0237 147.9 20.9 .097 35 2024 11 03 16 01 40 19.178 -14 00 12.16 .03710 1.0234 147.7 20.9 .088 43 2024 11 03 17 01 40 37.304 -14 15 45.31 .03693 1.0232 147.5 20.9 .082 52 2024 11 03 18 01 40 55.643 -14 31 26.76 .03677 1.0230 147.2 20.9 .078 63 2024 11 03 19 01 41 14.197 -14 47 16.58 .03660 1.0227 147.0 20.9 .077 76 2024 11 03 20 01 41 32.971 -15 03 14.82 .03643 1.0225 146.8 20.9 .080 88 2024 11 03 21 01 41 51.968 -15 19 21.56 .03627 1.0223 146.5 20.9 .086 100 2024 11 03 22 01 42 11.193 -15 35 36.86 .03610 1.0220 146.3 20.9 .096 109 2024 11 03 23 01 42 30.648 -15 52 00.78 .03594 1.0218 146.0 20.9 .109 118 2024 11 04 00 01 42 50.338 -16 08 33.39 .03578 1.0216 145.8 20.9 .124 124 2024 11 04 01 01 43 10.268 -16 25 14.75 .03562 1.0213 145.5 20.9 .141 129 2024 11 04 02 01 43 30.440 -16 42 04.92 .03546 1.0211 145.3 20.8 .159 133 2024 11 04 03 01 43 50.860 -16 59 03.98 .03530 1.0209 145.0 20.8 .179 137 2024 11 04 04 01 44 11.532 -17 16 11.96 .03514 1.0207 144.8 20.8 .199 139 2024 11 04 05 01 44 32.459 -17 33 28.94 .03498 1.0204 144.5 20.8 .221 142 2024 11 04 06 01 44 53.648 -17 50 54.98 .03483 1.0202 144.2 20.8 .244 144 2024 11 04 07 01 45 15.102 -18 08 30.13 .03467 1.0200 144.0 20.8 .268 145 2024 11 04 08 01 45 36.825 -18 26 14.45 .03452 1.0197 143.7 20.8 .293 147 2024 11 04 09 01 45 58.824 -18 44 07.99 .03436 1.0195 143.4 20.8 .319 148 2024 11 04 10 01 46 21.103 -19 02 10.81 .03421 1.0193 143.2 20.8 .345 149 2024 11 04 11 01 46 43.667 -19 20 22.96 .03406 1.0190 142.9 20.8 .373 150